User: anonymous   Login
Location: Unspecified
(0.0000°N, 0.0000°E)
Time: 13:51:14
(UTC+00:00)
Language:

RAX-2 - Orbit

View from above orbital plane
View from above orbital plane
View from above satellite
View from above satellite

Ground track
Ground track

The orbit data is extracted from the following two-line orbital elements,

1 37853U 11061D   15212.88017525  .00003164  00000-0  19850-3 0  9992
2 37853 101.7075 085.9050 0193987 305.2393 118.0259 14.96571836203795
Epoch (UTC): 31 July 2015 21:07:27
Eccentricity: 0.0193987
inclination: 101.7075°
perigee height: 442 km
apogee height: 712 km
right ascension of ascending node: 85.9050°
argument of perigee: 305.2393°
revolutions per day: 14.96571836
mean anomaly at epoch: 118.0259°
orbit number at epoch: 20379

The dashed part of the orbit path shows where the satellite is in the earth's shadow,  

DLR